[[{"header":{"parameterUnit":"m.s-1","parameterCategory":1,"la1":30.2991,"la2":30.254,"lo1":-89.0895,"lo2":-89.0444,"dy":0.0017,"dx":0.0017,"nx":28,"ny":28,"refTime":"2025-07-24T03:00:00:Z","depth":0,"parameterNumber":2,"parameterNumberName":"U-component_of_WINDS"},"data":[0,0,0,0,0,0,0,0,0,0,0,0,0,0,0,0,0,0,0,0,0,0,0,0,0,0,0,0,0,0,0,0,0,0,0,0,0,0,0,0,0,0,0,0,0,0,0,0,0,0,0,0,0,0,0,0,0,0,-1.4294,-1.4297,0,-1.4587,-1.459,-1.4593,-1.4643,-1.4641,-1.4638,-1.4636,-1.4941,-1.4952,-1.4962,0,0,0,0,0,0,0,0,0,0,0,0,0,-1.3784,-1.3794,-1.4294,-1.4298,-1.4301,-1.4586,-1.459,-1.4594,-1.4643,-1.464,-1.4637,-1.4634,-1.4938,-1.495,-1.4963,0,0,0,0,0,0,0,0,0,0,0,0,0,-1.4034,-1.3796,-1.4293,-1.436,-1.4369,-1.4585,-1.459,-1.4595,-1.4644,-1.464,-1.4637,-1.4633,-1.4934,-1.4949,-1.4965,-1.5137,0,0,-1.5013,-1.502,0,0,0,0,0,0,0,0,-1.402,-1.4053,-1.4347,-1.4356,-1.4366,-1.4574,-1.4523,-1.4777,-1.4645,-1.454,-1.4636,-1.4631,-1.4823,-1.4847,-1.4911,-1.5152,-1.5165,-1.5014,-1.5024,-1.503,-1.5035,0,0,0,0,0,0,0,-1.4003,-1.4041,-1.441,-1.4351,-1.4363,-1.4378,-1.4409,-1.4571,-1.4699,-1.4549,-1.4553,-1.4587,-1.4827,-1.4895,-1.4918,-1.5169,-1.5014,-1.5028,-1.5037,-1.5044,-1.557,-1.5574,0,0,0,0,0,0,-1.3973,-1.4026,-1.4401,-1.4419,-1.418,-1.439,-1.4425,-1.4511,-1.4697,-1.4722,-1.4589,-1.4588,-1.487,-1.49,-1.4929,-1.5146,-1.503,-1.5045,-1.5054,-1.5565,-1.5571,-1.5576,0,0,0,0,0,0,-1.3961,-1.4005,-1.4389,-1.4224,-1.4274,-1.4403,-1.4499,-1.4519,-1.4587,-1.4728,-1.4752,-1.4635,-1.4869,-1.4907,-1.5086,-1.5157,-1.5052,-1.5066,-1.556,-1.5567,-1.5573,-1.5579,0,0,0,0,0,0,-1.3947,-1.4001,-1.4066,-1.4225,-1.4282,-1.4538,-1.4504,-1.4528,-1.4614,-1.4614,-1.4777,-1.4801,-1.4869,-1.5062,-1.5101,-1.5177,-1.5079,-1.5554,-1.5563,-1.5571,-1.5573,-1.5585,-1.5595,0,0,0,0,0,-1.3928,-1.4057,-1.4069,-1.4114,-1.4366,-1.4542,-1.4575,-1.4649,-1.4619,-1.4687,-1.4778,-1.4796,-1.5142,-1.508,-1.5124,-1.5206,-1.555,-1.556,-1.557,-1.5568,-1.5583,-1.5595,0,0,0,0,0,0,-1.3905,-1.4079,-1.4095,-1.4278,-1.4395,-1.455,-1.4638,-1.4662,-1.4791,-1.4787,-1.4874,-1.4911,-1.5085,-1.5163,-1.509,-1.5384,-1.5344,-1.5364,-1.5327,-1.5342,-1.5353,-1.5332,-1.5092,0,0,0,0,0,-1.3921,-1.4047,-1.4193,-1.4341,-1.4399,-1.4508,-1.4587,-1.4634,-1.4759,-1.481,-1.4914,-1.5036,-1.5173,-1.5262,-1.5395,-1.5584,-1.5622,-1.5662,-1.5673,-1.5682,-1.5699,-1.5807,-1.5828,-1.5609,-1.5609,-1.5609,0,0,-1.3956,-1.4067,-1.4141,-1.4339,-1.4435,-1.4567,-1.4549,-1.4689,-1.4788,-1.4832,-1.5007,-1.5087,-1.523,-1.5415,-1.5501,-1.5485,-1.5767,-1.5695,-1.5701,-1.5713,-1.582,-1.5841,-1.5859,-1.5616,-1.5615,-1.5614,0,0,-1.4088,-1.4182,-1.4317,-1.4414,-1.4559,-1.4631,-1.4663,-1.4815,-1.487,-1.5046,-1.5083,-1.5203,-1.5436,-1.5538,-1.562,-1.579,-1.5813,-1.5832,-1.5891,-1.5996,-1.6013,-1.6029,-1.6093,-1.6114,-1.5847,-1.5847,-1.5847,0,-1.4113,-1.4311,-1.4384,-1.4522,-1.461,-1.4653,-1.4793,-1.4883,-1.5065,-1.5126,-1.5104,-1.5399,-1.5499,-1.5709,-1.5751,-1.5815,-1.5857,-1.5814,-1.6004,-1.6021,-1.6037,-1.6099,-1.6122,-1.5849,-1.5849,-1.5848,-1.5848,0,-1.4337,-1.4473,-1.4565,-1.4738,-1.4836,-1.4974,-1.5071,-1.5161,-1.5199,-1.5274,-1.5455,-1.5576,-1.5736,-1.5789,-1.5828,-1.6006,-1.5992,-1.5986,-1.5948,-1.6058,-1.6118,-1.6142,-1.5851,-1.585,-1.585,-1.585,0,0,-1.4463,-1.4675,-1.4707,-1.4788,-1.4951,-1.506,-1.5201,-1.5356,-1.5433,-1.5557,-1.568,-1.5876,-1.5873,-1.5966,-1.6017,-1.6109,-1.624,-1.6093,-1.6098,-1.6118,-1.6447,-1.6452,-1.6478,-1.6255,-1.626,-1.6263,-1.6436,0,-1.4615,-1.4866,-1.4937,-1.515,-1.5279,-1.5323,-1.5446,-1.5561,-1.5636,-1.5758,-1.584,-1.5979,-1.5963,-1.602,-1.6112,-1.6204,-1.6308,-1.6192,-1.6373,-1.6379,-1.6338,-1.6509,-1.6514,-1.6671,-1.646,-1.6464,-1.6467,0,-1.4827,-1.4954,-1.5179,-1.5329,-1.5385,-1.5495,-1.5644,-1.5759,-1.5891,-1.5939,-1.6043,-1.6086,-1.6238,-1.619,-1.6402,-1.6322,-1.64,-1.6457,-1.6465,-1.6487,-1.6431,-1.6538,-1.6723,-1.6747,-1.6504,-1.6501,-1.6498,0,-1.4899,-1.5127,-1.5292,-1.5359,-1.5536,-1.5613,-1.5691,-1.5819,-1.5908,-1.6039,-1.6099,-1.6245,-1.6327,-1.6441,-1.6524,-1.648,-1.673,-1.6688,-1.6777,-1.6775,-1.6829,-1.6825,-1.7032,-1.6875,-1.6874,-1.6874,-1.6873,0,-1.5064,-1.5201,-1.5327,-1.5429,-1.5585,-1.5666,-1.5819,-1.5899,-1.6013,-1.6133,-1.618,-1.6292,-1.6394,-1.652,-1.6586,-1.6754,-1.6789,-1.6835,-1.6851,-1.6832,-1.6827,-1.6886,-1.6878,-1.688,-1.6879,-1.6878,-1.6877,0,-1.5172,-1.5262,-1.5445,-1.5598,-1.5639,-1.5748,-1.588,-1.5982,-1.6057,-1.6209,-1.6249,-1.6369,-1.6521,-1.6614,-1.6807,-1.6851,-1.7037,-1.7047,-1.6991,-1.7,-1.7084,-1.7076,-1.7339,-1.7379,-1.7192,-1.7193,-1.7195,0,-1.5272,-1.5379,-1.5542,-1.5625,-1.5704,-1.5837,-1.5928,-1.6012,-1.6106,-1.6266,-1.6349,-1.6503,-1.6632,-1.6873,-1.6978,-1.7127,-1.7144,-1.7225,-1.7166,-1.7145,-1.7149,-1.7142,-1.7155,-1.7236,-1.7237,-1.7239,-1.724,0,-1.5442,-1.5481,-1.5609,-1.5755,-1.5862,-1.598,-1.6099,-1.6165,-1.627,-1.6373,-1.6528,-1.6627,-1.6824,-1.6978,-1.7135,-1.7218,-1.7249,-1.7257,-1.7286,-1.7269,-1.7233,-1.7257,-1.7021,-1.7251,-1.725,-1.7249,-1.7249,-1.7248,-1.5551,-1.5649,-1.578,-1.5922,-1.602,-1.613,-1.6234,-1.6322,-1.6452,-1.6618,-1.666,-1.6823,-1.6956,-1.717,-1.7257,-1.7387,-1.7376,-1.7417,-1.7428,-1.7438,-1.7441,-1.721,-1.7416,-1.7416,-1.7416,-1.7416,-1.7415,0,-1.5725,-1.5812,-1.5942,-1.6106,-1.6219,-1.6234,-1.6366,-1.6461,-1.6603,-1.6723,-1.6848,-1.7028,-1.7177,-1.7295,-1.7449,-1.7531,-1.7549,-1.757,-1.7566,-1.7585,-1.7441,-1.7402,-1.7553,-1.7553,-1.7553,-1.7553,-1.7552,-1.7552,-1.5829,-1.5996,-1.6051,-1.6268,-1.6354,-1.6513,-1.6588,-1.6691,-1.6787,-1.6985,-1.7109,-1.7183,-1.7304,-1.7468,-1.7607,-1.7638,-1.7694,-1.7712,-1.7746,-1.761,-1.7595,-1.7581,-1.7544,-1.7723,-1.7723,-1.788,-1.7881,-1.7882]},{"header":{"parameterUnit":"m.s-1","parameterCategory":1,"la1":30.2991,"la2":30.254,"lo1":-89.0895,"lo2":-89.0444,"dy":0.0017,"dx":0.0017,"nx":28,"ny":28,"refTime":"2025-07-24T03:00:00:Z","depth":0,"parameterNumber":3,"parameterNumberName":"V-component_of_WINDS"},"data":[0,0,0,0,0,0,0,0,0,0,0,0,0,0,0,0,0,0,0,0,0,0,0,0,0,0,0,0,0,0,0,0,0,0,0,0,0,0,0,0,0,0,0,0,0,0,0,0,0,0,0,0,0,0,0,0,0,0,-1.9119,-1.9119,0,-1.9091,-1.9091,-1.909,-1.9044,-1.9044,-1.9043,-1.9042,-1.9013,-1.9013,-1.9013,0,0,0,0,0,0,0,0,0,0,0,0,0,-1.9133,-1.9133,-1.9119,-1.9119,-1.9119,-1.9091,-1.9091,-1.909,-1.9045,-1.9044,-1.9043,-1.9042,-1.9013,-1.9013,-1.9013,0,0,0,0,0,0,0,0,0,0,0,0,0,-1.9118,-1.9133,-1.9119,-1.9092,-1.909,-1.9091,-1.9091,-1.909,-1.9045,-1.9044,-1.9042,-1.9041,-1.9013,-1.9013,-1.9013,-1.9039,0,0,-1.9014,-1.9014,0,0,0,0,0,0,0,0,-1.9119,-1.9118,-1.9097,-1.9094,-1.9091,-1.907,-1.9085,-1.9073,-1.9045,-1.9062,-1.9042,-1.904,-1.9033,-1.9032,-1.9029,-1.9038,-1.9037,-1.9014,-1.9014,-1.9014,-1.9014,0,0,0,0,0,0,0,-1.912,-1.9119,-1.9108,-1.9096,-1.9093,-1.9082,-1.9078,-1.9083,-1.9055,-1.906,-1.9057,-1.9054,-1.9032,-1.9029,-1.9028,-1.9036,-1.9014,-1.9014,-1.9014,-1.9014,-1.9063,-1.9065,0,0,0,0,0,0,-1.9125,-1.912,-1.9109,-1.9107,-1.9102,-1.9083,-1.9079,-1.9078,-1.9055,-1.905,-1.9055,-1.9052,-1.903,-1.9028,-1.9027,-1.9054,-1.9014,-1.9014,-1.9014,-1.9062,-1.9064,-1.9065,0,0,0,0,0,0,-1.9126,-1.9125,-1.911,-1.9113,-1.911,-1.9084,-1.9083,-1.9078,-1.9076,-1.9051,-1.9046,-1.9058,-1.9029,-1.9027,-1.9036,-1.9053,-1.9014,-1.9014,-1.9061,-1.9063,-1.9064,-1.911,0,0,0,0,0,0,-1.9127,-1.9125,-1.9135,-1.9113,-1.911,-1.912,-1.9085,-1.9079,-1.9076,-1.9072,-1.9052,-1.9048,-1.9028,-1.9036,-1.9036,-1.9052,-1.9014,-1.9059,-1.9062,-1.9064,-1.9107,-1.9114,-1.9119,0,0,0,0,0,-1.9127,-1.9149,-1.9135,-1.9134,-1.9121,-1.9121,-1.9119,-1.9095,-1.9078,-1.9087,-1.9071,-1.9048,-1.9051,-1.9038,-1.9037,-1.9053,-1.9058,-1.9061,-1.9064,-1.9105,-1.9112,-1.9119,0,0,0,0,0,0,-1.9173,-1.9146,-1.913,-1.9146,-1.9136,-1.9113,-1.9124,-1.9105,-1.91,-1.9096,-1.9067,-1.9063,-1.9076,-1.9066,-1.9051,-1.9077,-1.9051,-1.9054,-1.9082,-1.909,-1.9096,-1.9097,-1.9014,0,0,0,0,0,-1.9185,-1.9187,-1.9163,-1.9179,-1.9175,-1.9151,-1.915,-1.9132,-1.9121,-1.9117,-1.9101,-1.9091,-1.909,-1.9089,-1.9087,-1.9106,-1.9101,-1.9117,-1.9123,-1.9128,-1.913,-1.9139,-1.9146,-1.9075,-1.9075,-1.9075,0,0,-1.921,-1.9195,-1.9198,-1.9188,-1.9179,-1.9181,-1.9148,-1.9152,-1.9153,-1.9117,-1.9125,-1.9113,-1.91,-1.9114,-1.912,-1.9106,-1.9149,-1.9132,-1.9136,-1.9136,-1.9143,-1.9149,-1.9155,-1.9077,-1.9076,-1.9076,0,0,-1.9256,-1.9246,-1.9258,-1.9249,-1.9234,-1.9218,-1.9221,-1.9201,-1.9192,-1.9199,-1.9172,-1.9173,-1.9171,-1.9163,-1.9158,-1.9201,-1.918,-1.9201,-1.9232,-1.9241,-1.9246,-1.9251,-1.9265,-1.9271,-1.9204,-1.9204,-1.9204,0,-1.9289,-1.9292,-1.9266,-1.9272,-1.9268,-1.9236,-1.9247,-1.924,-1.9226,-1.9223,-1.9209,-1.9205,-1.9194,-1.9206,-1.9216,-1.9214,-1.9216,-1.9203,-1.9248,-1.9252,-1.9256,-1.9269,-1.9275,-1.9207,-1.9207,-1.9206,-1.9206,0,-1.9332,-1.9334,-1.9346,-1.9332,-1.933,-1.9339,-1.9314,-1.9315,-1.9298,-1.9283,-1.929,-1.9276,-1.9269,-1.9271,-1.9255,-1.928,-1.9272,-1.9253,-1.9226,-1.9266,-1.9278,-1.9283,-1.9211,-1.921,-1.9209,-1.9208,0,0,-1.9405,-1.9378,-1.9383,-1.9376,-1.9358,-1.9359,-1.9367,-1.936,-1.9361,-1.9352,-1.9357,-1.9356,-1.9338,-1.9333,-1.9316,-1.9323,-1.9357,-1.9303,-1.9302,-1.9313,-1.9383,-1.9396,-1.9402,-1.9343,-1.9344,-1.9345,-1.9383,0,-1.9447,-1.9458,-1.9435,-1.9451,-1.9452,-1.9422,-1.9428,-1.9417,-1.9404,-1.9403,-1.9388,-1.9387,-1.9365,-1.9361,-1.9368,-1.9352,-1.937,-1.9349,-1.9347,-1.9347,-1.935,-1.9409,-1.9423,-1.946,-1.9388,-1.9389,-1.9389,0,-1.9497,-1.949,-1.9506,-1.9487,-1.9487,-1.9493,-1.9485,-1.9485,-1.9472,-1.9461,-1.9456,-1.9435,-1.944,-1.9416,-1.9422,-1.9408,-1.9406,-1.9398,-1.9399,-1.9397,-1.937,-1.9407,-1.9471,-1.9477,-1.9397,-1.9396,-1.9395,0,-1.9547,-1.9543,-1.9552,-1.9547,-1.9525,-1.953,-1.9521,-1.9507,-1.9504,-1.9498,-1.9495,-1.9489,-1.9486,-1.9482,-1.9459,-1.9444,-1.9468,-1.9442,-1.9459,-1.946,-1.9465,-1.9464,-1.9528,-1.9466,-1.9465,-1.9465,-1.9465,0,-1.9596,-1.9606,-1.9574,-1.958,-1.9591,-1.9565,-1.9576,-1.9564,-1.9552,-1.9554,-1.9528,-1.9531,-1.9502,-1.9501,-1.9484,-1.9491,-1.949,-1.9482,-1.9477,-1.9483,-1.9484,-1.9481,-1.9477,-1.9467,-1.9466,-1.9466,-1.9466,0,-1.9654,-1.9633,-1.964,-1.9619,-1.9613,-1.9622,-1.9604,-1.9608,-1.9593,-1.9596,-1.9595,-1.9571,-1.9569,-1.9547,-1.954,-1.9528,-1.9542,-1.9532,-1.9546,-1.9542,-1.956,-1.9558,-1.9623,-1.9629,-1.9564,-1.9565,-1.9565,0,-1.9685,-1.9693,-1.9672,-1.9671,-1.9664,-1.9663,-1.966,-1.9635,-1.9633,-1.962,-1.9625,-1.9621,-1.9616,-1.9614,-1.9595,-1.959,-1.9579,-1.9602,-1.9578,-1.9584,-1.9578,-1.9578,-1.9578,-1.9607,-1.9608,-1.9609,-1.9609,0,-1.9743,-1.9732,-1.9729,-1.9722,-1.972,-1.9713,-1.9705,-1.9706,-1.9678,-1.9677,-1.9675,-1.9671,-1.9664,-1.9659,-1.9651,-1.9641,-1.962,-1.9617,-1.9621,-1.9627,-1.9634,-1.9629,-1.9558,-1.9616,-1.9615,-1.9615,-1.9614,-1.9614,-1.9788,-1.9793,-1.9779,-1.9776,-1.9767,-1.976,-1.9762,-1.9748,-1.9745,-1.9737,-1.9723,-1.9722,-1.9709,-1.9694,-1.9687,-1.9685,-1.9673,-1.9679,-1.968,-1.9681,-1.9684,-1.9635,-1.9684,-1.9684,-1.9683,-1.9683,-1.9683,0,-1.9843,-1.9833,-1.9831,-1.982,-1.9818,-1.9799,-1.9789,-1.9788,-1.9788,-1.9777,-1.9773,-1.977,-1.9765,-1.9747,-1.974,-1.9743,-1.9733,-1.9742,-1.9741,-1.9739,-1.9696,-1.9693,-1.975,-1.975,-1.975,-1.975,-1.975,-1.975,-1.9872,-1.9879,-1.9866,-1.9869,-1.9858,-1.9857,-1.9853,-1.9846,-1.9837,-1.9835,-1.9831,-1.9819,-1.9805,-1.9798,-1.9792,-1.9787,-1.9785,-1.9797,-1.9789,-1.9748,-1.9742,-1.9736,-1.9733,-1.9797,-1.9797,-1.9831,-1.9832,-1.9832]}]]